This demonstration page uses our WeatherBlox Daily Observations layout. Learn more.

Left ArrowRight Arrow

Hourly Observations for August 14, 2021

Temp ( °F °C ) Dew Point ( °F °C ) Humidity (%) Winds ( mph kmh ) Pressure ( in mb ) Visibility ( mi km ) Precip ( " mm )
12:54 am 00:54 Clear 66 18.9 61 16.1 84 84 Calm 30.24 1024 10 16 0.00 0.00
1:54 am 01:54 Clear 65 18.3 61 16.1 87 87 N 6 9 30.24 1024 10 16 0.00 0.00
2:54 am 02:54 Clear 64 17.8 61 16.1 90 90 N 6 9 30.23 1024 10 16 0.00 0.00
3:54 am 03:54 Clear 62 16.7 59 15 90 90 N 6 9 30.24 1024 10 16 0.00 0.00
4:54 am 04:54 Clear 62 16.7 59 15 90 90 N 3 6 30.25 1024 10 16 0.00 0.00
5:54 am 05:54 Clear 61 16.1 58 14.4 90 90 N 5 7 30.25 1024 10 16 0.00 0.00
6:54 am 06:54 Sunny 62 16.7 58 14.4 86 86 Calm 30.27 1025 10 16 0.00 0.00
7:54 am 07:54 Mostly Sunny 65 18.3 60 15.6 84 84 Calm 30.28 1025 10 16 0.00 0.00
8:54 am 08:54 Cloudy 70 21.1 62 16.7 76 76 NNE 5 7 30.27 1025 10 16 0.00 0.00
9:54 am 09:54 Sunny 79 26.1 61 16.1 54 54 VRB 3 6 30.27 1025 10 16 0.00 0.00
10:54 am 10:54 Sunny 80 26.7 62 16.7 54 54 SSW 6 9 30.27 1025 10 16 0.00 0.00
11:54 am 11:54 Sunny 82 27.8 62 16.7 51 51 S 7 11 30.26 1025 10 16 0.00 0.00
12:54 pm 12:54 Sunny 86 30 55 12.8 35 35 undefined N/A 30.24 1024 10 16 0.00 0.00
1:54 pm 13:54 Sunny 88 31.1 49 9.4 26 26 ESE 16 26 30.23 1024 10 16 0.00 0.00
2:54 pm 14:54 Sunny 87 30.6 47 8.3 25 25 ESE 15 24 30.22 1023 10 16 0.00 0.00
3:54 pm 15:54 Sunny 87 30.6 51 10.6 29 29 ESE 14 22 30.20 1023 10 16 0.00 0.00
4:54 pm 16:54 Sunny 86 30 53 11.7 32 32 SSE 8 13 30.19 1022 10 16 0.00 0.00
5:54 pm 17:54 Sunny 85 29.4 57 13.9 39 39 SE 12 19 30.18 1022 10 16 0.00 0.00
6:54 pm 18:54 Sunny 83 28.3 54 12.2 37 37 SE 13 20 30.16 1021 10 16 0.00 0.00
7:54 pm 19:54 Sunny 80 26.7 55 12.8 42 42 ESE 12 19 30.16 1021 10 16 0.00 0.00
8:54 pm 20:54 Clear 77 25 56 13.3 48 48 ESE 9 15 30.15 1021 10 16 0.00 0.00
9:54 pm 21:54 Clear 76 24.4 56 13.3 50 50 ESE 10 17 30.16 1021 10 16 0.00 0.00
10:54 pm 22:54 Clear 73 22.8 57 13.9 57 57 ESE 7 11 30.16 1022 10 16 0.00 0.00
11:54 pm 23:54 Clear 72 22.2 59 15 64 64 SE 9 15 30.16 1021 10 16 0.00 0.00

Powered by AerisWeather